This is the latest recevied weather packets stored in our database for station/object OK1ZDJ-13. If no packets are shown the sender has not sent any weather packets the latest 10 day(s).
| Time | Temp. | Humidity | Pressure | Rain* | Wind** | Luminosity | Snow |
|---|---|---|---|---|---|---|---|
| 1777777081 | 5° C | 75% | 1019.3 hPa | - | - | - | - |
| 1777776481 | 5° C | 76% | 1019.1 hPa | - | - | - | - |
| 1777775881 | 5° C | 75% | 1019.4 hPa | - | - | - | - |
| 1777775281 | 4.44° C | 76% | 1019.3 hPa | - | - | - | - |
| 1777774681 | 4.44° C | 77% | 1019.3 hPa | - | - | - | - |
| 1777774081 | 5° C | 77% | 1019.3 hPa | - | - | - | - |
| 1777773481 | 5° C | 79% | 1019.4 hPa | - | - | - | - |
| 1777772881 | 5° C | 78% | 1019.4 hPa | - | - | - | - |
| 1777772281 | 5° C | 77% | 1019.6 hPa | - | - | - | - |
| 1777771672 | 5.56° C | 77% | 1019.5 hPa | - | - | - | - |
| 1777771072 | 5.56° C | 77% | 1019.6 hPa | - | - | - | - |
| 1777770472 | 6.11° C | 78% | 1019.6 hPa | - | - | - | - |
| 1777769872 | 6.11° C | 76% | 1019.6 hPa | - | - | - | - |
| 1777769272 | 6.11° C | 76% | 1019.6 hPa | - | - | - | - |
| 1777768672 | 6.11° C | 75% | 1019.6 hPa | - | - | - | - |
| 1777768072 | 6.11° C | 75% | 1019.7 hPa | - | - | - | - |
| 1777767472 | 6.67° C | 75% | 1019.7 hPa | - | - | - | - |
| 1777766872 | 6.67° C | 74% | 1019.7 hPa | - | - | - | - |
| 1777766272 | 7.22° C | 73% | 1019.8 hPa | - | - | - | - |
| 1777765672 | 7.22° C | 73% | 1020 hPa | - | - | - | - |
| 1777765072 | 7.22° C | 75% | 1020.1 hPa | - | - | - | - |
| 1777764472 | 7.22° C | 73% | 1020 hPa | - | - | - | - |
| 1777763872 | 7.22° C | 73% | 1020.1 hPa | - | - | - | - |
| 1777762672 | 7.78° C | 72% | 1020.1 hPa | - | - | - | - |
| 1777762072 | 7.78° C | 71% | 1020 hPa | - | - | - | - |
* Rain since midnight (hover to see other rain measurements)
** Current wind speed in m/s (hover to see current wind gust speed)